Weather History for KASX - April, 2014

Change the Weather History Date:

Wednesday, April 16, 2014

  Actual Average Record
Temperature  
Mean Temperature 24 °F -  
Max Temperature 28 °F 56 °F 88 °F (2002)
Min Temperature 21 °F 30 °F 10 °F (1962)
Degree Days  
Heating Degree Days 40    
Moisture  
Dew Point 22 °F    
Average Humidity 85    
Maximum Humidity 100    
Minimum Humidity 53    
Precipitation  
Precipitation 0.29 in - - ()
Sea Level Pressure  
Sea Level Pressure 30.19 in    
Wind  
Wind Speed 9 mph (ENE)    
Max Wind Speed 22 mph    
Max Gust Speed 31 mph    
Visibility 3 miles    
Events Fog , Snow    
Averages and records for this station are not official NWS values.
T = Trace of Precipitation, MM = Missing Value Source: NWS Daily Summary

Daily Weather History Graph

Daily Weather History Graph

Search for Another Location

Airport or City:

Trip Planner

Search our weather history database for the weather conditions in past years. The results will help you decide how hot, cold, wet, or windy it might be!

Date:

Astronomy

Apr. 16, 2014 Rise Set
Actual Time 6:14 AM CDT 7:53 PM CDT
Civil Twilight 5:43 AM CDT 8:24 PM CDT
Nautical Twilight 5:04 AM CDT 9:03 PM CDT
Astronomical Twilight 4:22 AM CDT 9:45 PM CDT
Moon 9:42 PM CDT (4/16) 6:58 AM CDT (4/16)
Length of Visible Light 14h 41m
Length of Day
13h 38m
Full, 98% of the Moon is Illuminated
Apr 16
Full
Apr 22
Last Quarter
Apr 29
New
May 6
First Quarter
May 14
Full

Hourly Weather History & Observations

Time (CDT) Temp. Windchill Dew Point Humidity Pressure Visibility Wind Dir Wind Speed Gust Speed Precip Events Conditions
12:53 AM 21.9 °F 15.7 °F 8.1 °F 55% 30.19 in 10.0 mi SSE 4.6 mph - N/A   Clear
1:53 AM 21.0 °F 14.6 °F 8.1 °F 57% 30.20 in 10.0 mi SSE 4.6 mph - N/A   Clear
2:53 AM 21.9 °F 17.2 °F 7.0 °F 53% 30.19 in 10.0 mi SSE 3.5 mph - N/A   Clear
3:53 AM 21.0 °F - 9.0 °F 60% 30.19 in 10.0 mi Calm Calm - N/A   Mostly Cloudy
4:53 AM 21.0 °F - 12.0 °F 68% 30.21 in 10.0 mi Calm Calm - N/A   Overcast
5:53 AM 21.9 °F 17.2 °F 12.0 °F 66% 30.21 in 10.0 mi ENE 3.5 mph - N/A   Overcast
6:53 AM 21.9 °F 14.5 °F 12.0 °F 66% 30.22 in 10.0 mi ENE 5.8 mph - N/A   Overcast
7:53 AM 24.1 °F 17.0 °F 12.0 °F 60% 30.23 in 10.0 mi ENE 5.8 mph - N/A   Overcast
8:53 AM 26.1 °F 20.5 °F 10.9 °F 53% 30.25 in 10.0 mi East 4.6 mph - N/A   Overcast
9:22 AM 26.1 °F 20.5 °F 15.1 °F 63% 30.21 in 2.5 mi Variable 4.6 mph - 0.00 in Snow Light Snow
9:31 AM 26.1 °F 21.9 °F 18.0 °F 71% 30.21 in 2.5 mi Variable 3.5 mph - 0.00 in Snow Light Snow
9:34 AM 26.1 °F 21.9 °F 19.0 °F 75% 30.21 in 3.0 mi Variable 3.5 mph - 0.00 in Snow Light Snow
9:40 AM 26.1 °F 20.5 °F 21.0 °F 81% 30.21 in 1.8 mi Variable 4.6 mph - 0.00 in Snow Light Snow
9:53 AM 27.0 °F 19.5 °F 24.1 °F 89% 30.26 in 0.8 mi SE 6.9 mph - 0.00 in Snow Light Snow
10:06 AM 27.0 °F 21.6 °F 24.1 °F 89% 30.22 in 0.8 mi Variable 4.6 mph - 0.00 in Snow Light Snow
10:43 AM 27.0 °F 18.7 °F 24.1 °F 89% 30.21 in 0.8 mi East 8.1 mph - 0.02 in Snow Light Snow
10:53 AM 27.0 °F 18.7 °F 25.0 °F 92% 30.25 in 0.8 mi East 8.1 mph - 0.02 in Snow Light Snow
11:53 AM 27.0 °F 17.3 °F 25.0 °F 92% 30.24 in 0.5 mi ENE 10.4 mph - 0.01 in Fog , Snow Snow
12:14 PM 27.0 °F 15.6 °F 25.0 °F 92% 30.19 in 0.8 mi ENE 13.8 mph - 0.01 in Snow Light Snow
12:25 PM 27.0 °F 15.6 °F 25.0 °F 92% 30.18 in 0.8 mi ENE 13.8 mph - 0.01 in Snow Light Snow
1:28 PM 27.0 °F 15.6 °F 25.0 °F 92% 30.17 in 0.2 mi ENE 13.8 mph - 0.02 in Fog , Snow Snow
1:53 PM 27.0 °F 16.1 °F 25.0 °F 92% 30.21 in 0.2 mi ENE 12.7 mph - 0.05 in Fog , Snow Snow
2:53 PM 27.0 °F 13.5 °F 25.0 °F 92% 30.19 in 0.2 mi NE 19.6 mph - 0.04 in Fog , Snow Snow
3:53 PM 27.0 °F 14.3 °F 26.1 °F 96% 30.19 in 0.2 mi ENE 17.3 mph - 0.03 in Fog , Snow Snow
4:53 PM 27.0 °F 13.2 °F 26.1 °F 96% 30.19 in 0.2 mi ENE 20.7 mph - 0.03 in Fog , Snow Snow
5:06 PM 27.0 °F 13.2 °F 26.1 °F 96% 30.15 in 0.5 mi NE 20.7 mph - 0.01 in Fog , Snow Snow
5:23 PM 27.0 °F 13.5 °F 26.1 °F 96% 30.15 in 0.2 mi NE 19.6 mph - 0.01 in Fog , Snow Snow
5:53 PM 27.0 °F 13.2 °F 26.1 °F 96% 30.19 in 0.5 mi NE 20.7 mph - 0.02 in Fog , Snow Snow
6:10 PM 27.0 °F 13.2 °F 25.0 °F 92% 30.15 in 0.2 mi NE 20.7 mph 28.8 mph 0.00 in Fog , Snow Snow
6:33 PM 27.0 °F 13.5 °F 26.1 °F 96% 30.15 in 0.5 mi NE 19.6 mph - 0.01 in Fog , Snow Light Snow
6:53 PM 27.0 °F 12.8 °F 26.1 °F 96% 30.20 in 0.5 mi NE 21.9 mph 31.1 mph 0.01 in Fog , Snow Snow
7:11 PM 27.0 °F 13.2 °F 26.1 °F 96% 30.16 in 0.2 mi NE 20.7 mph 27.6 mph 0.01 in Fog , Snow Heavy Snow
7:53 PM 27.0 °F 13.9 °F 26.1 °F 96% 30.20 in 0.2 mi ENE 18.4 mph 28.8 mph 0.02 in Fog , Snow Snow
8:01 PM 27.0 °F 13.5 °F 26.1 °F 96% 30.16 in 0.5 mi ENE 19.6 mph - 0.00 in Fog , Snow Snow
8:53 PM 27.0 °F 12.8 °F 26.1 °F 96% 30.21 in 0.5 mi NE 21.9 mph 29.9 mph 0.02 in Fog , Snow Snow
9:53 PM 27.0 °F 13.5 °F 26.1 °F 96% 30.20 in 1.0 mi NE 19.6 mph - 0.02 in Snow Light Snow
10:11 PM 27.0 °F 13.9 °F 26.1 °F 96% 30.15 in 0.8 mi NE 18.4 mph - 0.00 in Snow Light Snow
10:31 PM 27.0 °F 14.3 °F 27.0 °F 100% 30.15 in 1.0 mi ENE 17.3 mph - 0.01 in Snow Light Snow
10:53 PM 28.0 °F 15.3 °F 27.0 °F 96% 30.18 in 1.0 mi NE 18.4 mph - 0.01 in Snow Light Snow
11:06 PM 28.0 °F 15.7 °F 27.0 °F 96% 30.14 in 0.8 mi NE 17.3 mph - 0.01 in Snow Light Snow
11:14 PM 28.0 °F 14.9 °F 27.0 °F 96% 30.14 in 1.0 mi NE 19.6 mph - 0.01 in Snow Light Snow
11:42 PM 28.0 °F 15.3 °F 27.0 °F 96% 30.13 in 2.5 mi NE 18.4 mph - 0.01 in Snow Light Snow
11:53 PM 28.0 °F 14.9 °F 27.0 °F 96% 30.17 in 2.0 mi NE 19.6 mph - 0.01 in Snow Light Snow